Flag for Chile Weather past 2 weeks in Santiago, Chile

Now
77 °F

Sunny.


Feels Like: 78 °F
Forecast: 49 / 80 °F
Wind: 6 mph from Southeast

Location: Pudahuel

Current Time: Apr 27, 2015 at 4:35:08 PM

Latest Report: Apr 27, 2015 at 4:00 PM


Visibility: 5 mi

Pressure: 29.89 "Hg

Humidity: 34%

Dew point: 46 °F

Location of SantiagoLocation

Historic Weather in Santiago — Graph

°F

Santiago temperature yesterday

Maximum temperature yesterday: 72 °F (at 5:00 PM)
Minimum temperature yesterday: 48 °F (at 3:00 AM)
Average temperature yesterday: 59 °F

Past Weeks' High & Low Weather Summary

 TemperatureHumidityPressure
High84 °F (Apr 23, 4:00 PM)100% (Apr 14, 10:00 AM)30.18 "Hg (Apr 14, 10:00 AM)
Low43 °F (Apr 21, 6:00 AM)12% (Apr 23, 4:00 PM)29.86 "Hg (Apr 18, 3:00 PM)
Average60 °F56%30.00 "Hg
* Reported Apr 12 3:00 PM — Apr 27 3:00 PM, Santiago, Weather by CustomWeather, © 2015

Note: Actual official high and low records may vary slightly from our data, if they occured in-between our weather recording intervals... More about our weather records

Advertising

Santiago weather history for previous 24 hours

 ConditionsComfort  
Time TempWeatherWind HumidityBarometerVisibility
3:00 PM
Mon, Apr 27
75 °FSunny.1 mph36%29.92 "Hg3 mi
2:00 PM72 °FHaze.3 mph44%29.95 "Hg3 mi
1:00 PM68 °FSunny.2 mph49%29.95 "Hg3 mi
12:00 PM64 °FSunny.2 mph56%29.98 "Hg2 mi
11:00 AM57 °FSunny.No wind67%29.98 "Hg2 mi
10:00 AM50 °FFog.2 mph82%29.98 "Hg2 mi
9:00 AM48 °FCool.3 mph82%29.95 "Hg1 mi
8:00 AM48 °FSunny.6 mph87%29.95 "Hg2 mi
7:00 AM48 °FClear.3 mph87%29.95 "Hg2 mi
6:00 AM50 °FClear.3 mph82%29.95 "Hg2 mi
5:00 AM50 °FClear.2 mph82%29.98 "Hg3 mi
4:00 AM50 °FClear.1 mph76%29.98 "Hg4 mi
3:00 AM55 °FClear.3 mph72%29.98 "Hg4 mi
2:00 AM57 °FClear.7 mph72%29.98 "Hg4 mi
1:00 AM57 °FClear.6 mph72%29.98 "Hg4 mi
12:00 AM57 °FClear.3 mph72%29.95 "Hg4 mi
11:00 PM
Sun, Apr 26
61 °FClear.7 mph63%29.95 "Hg5 mi
10:00 PM63 °FClear.3 mph59%29.95 "Hg5 mi
9:00 PM64 °FClear.5 mph56%29.95 "Hg5 mi
8:00 PM66 °FClear.6 mph52%29.95 "Hg5 mi
7:00 PM70 °FClear.7 mph46%29.95 "Hg4 mi
6:00 PM72 °FSunny.8 mph41%29.95 "Hg4 mi
5:00 PM72 °FSunny.3 mph41%29.95 "Hg4 mi
4:00 PM70 °FSunny.5 mph46%29.98 "Hg3 mi
Weather by CustomWeather, © 2015

See weather overviewHow to use our weather pages